Regional Weather Roundup
Issued by NWS Cleveland, OH

Home | Current Version | Previous Version | Text Only | Print | Product List | Glossary Off
Versions: 1 2 3 4 5 6 7 8 9 10 11 12 13 14 15 16 17 18 19 20 21 22 23 24 25 26 27 28 29 30 31 32 33 34 35 36 37 38 39 40 41 42 43 44 45 46 47 48 49 50

000
ASUS41 KCLE 310002
RWRCLE
OHIO REGIONAL WEATHER ROUNDUP
NATIONAL WEATHER SERVICE CLEVELAND, OH
800 PM EDT SUN AUG 30 2015

NOTE: "FAIR" INDICATES FEW OR NO CLOUDS BELOW 12,000 FEET WITH NO
SIGNIFICANT WEATHER AND/OR OBSTRUCTIONS TO VISIBILITY.

OHZ001>008-015>018-024>027-034-035-043-044-310100-
   NORTHWEST OHIO

CITY           SKY/WX    TMP DP  RH WIND       PRES   REMARKS
DEFIANCE       CLEAR     81  67  62 CALM      30.02R
FINDLAY        PTCLDY    76  71  85 E5        30.02S
TOLEDO EXPRESS CLEAR     75  69  81 CALM      30.01R
TOLEDO EXEC    CLEAR     81  66  60 CALM      30.02R
LIMA           CLEAR     77  68  73 S7        30.03S
$$

OHZ009>014-019>023-028>033-038-089-310100-
   NORTHEAST OHIO

CITY           SKY/WX    TMP DP  RH WIND       PRES   REMARKS
CLE-HOPKINS    MOCLDY    80  66  62 SW5       30.05R
CLE-LAKEFRONT  PTCLDY    78  70  76 CALM      30.02R
CUY CO. ARPT   MOCLDY    77  72  83 S6        30.05R
LORAIN-ELYRIA  MOCLDY    77  68  73 SW3       30.04R
ASHTABULA      PTCLDY    73  70  90 CALM      30.06R
AKRON-CANTON   PTCLDY    79  65  62 SW5       30.06S
WOOSTER        MOCLDY    73  67  81 SW5       30.06S
MANSFIELD      MOCLDY    77  64  64 SW5       30.08R
YOUNGSTOWN     MOCLDY    74  68  81 CALM      30.07R
$$

OHZ042-051>053-060>062-070>072-077>081-310100-
  SOUTHWEST OHIO

CITY           SKY/WX    TMP DP  RH WIND       PRES   REMARKS
CINC-COVINGTON CLOUDY    76  68  76 CALM      30.06F
CINC-LUNKEN    MOCLDY    75  70  84 CALM      30.06R
HAMILTON       MOCLDY    75  67  76 CALM      30.07R
DAYTON         MOCLDY    77  63  61 SW9       30.06S
WRIGHT-PAT AFB MOCLDY    77  66  69 S3        30.05S
DAYTON GENERAL MOCLDY    74  64  71 SW5       30.06R
WILMINGTON     MOCLDY    74  64  71 S3        30.07R
$$

OHZ036-037-039>041-045>050-054>059-063>069-073>076-082>088-310100-
  CENTRAL AND SOUTHEAST OHIO

CITY           SKY/WX    TMP DP  RH WIND       PRES   REMARKS
COLUMBUS       MOCLDY    81  68  64 SW3       30.04R
OSU AIRPORT    MOCLDY    81  67  62 S8        30.05S
BOLTON FIELD   NOT AVBL
RICKENBACK AFB PTCLDY    79  67  66 SW3       30.04S
NEWARK         MOCLDY    77  68  73 CALM      30.05S
MARION         MOCLDY    72  67  84 SE3       30.05F
LANCASTER      PTCLDY    79  68  69 S6        30.06S
ZANESVILLE     MOCLDY    77  65  66 E5        30.07R
NEW PHILLY     PTCLDY    75  66  73 SE7       30.07R
$$



USA.gov is the U.S. government's official web portal to all federal, state and local government web resources and services.